QPF
0.06 0.07 0.07 0.06 0.05 0.04 0.05 0.05 0.05 0.04 0.03 0.02 0.02 0.02 0.02 0.03 0.02 0.02 0.01 0.01 0.02 0.02 0.02 0.02 0.02 0.04 0.04 0.03 0.02 0.02 0.02 0.02 0.03 0.03 0.03 0.03 0.03 0.03
0.06 0.07 0.07 0.06 0.05 0.04 0.04 0.04 0.03 0.03 0.03 0.01 0.02 0.02 0.03 0.02 0.02 0.02 0.01 0.01 0.01 0.01 0.01 0.01 0.01 0.05 0.04 0.02 0.02 0.02 0.02 0.02 0.02 0.02 0.02 0.02 0.03 0.03
0.05 0.04 0.05 0.06 0.05 0.04 0.05 0.05 0.05 0.05 0.04 0.03 0.03 0.03 0.03 0.03 0.03 0.03 0.03 0.02 0.02 0.01 0.01 0.02 0.02 0.03 0.05 0.02 0.01 0.01 0.02 0.02 0.02 0.02 0.02 0.02 0.02 0.03
0.04 0.03 0.03 0.04 0.04 0.03 0.03 0.03 0.03 0.03 0.05 0.05 0.04 0.04 0.03 0.03 0.04 0.04 0.04 0.04 0.04 0.04 0.04 0.04 0.04 0.03 0.04 0.04 0.02 0.01 0.02 0.02 0.03 0.03 0.02 0.02 0.02 0.03
0.02 0.02 0.02 0.03 0.03 0.03 0.03 0.02 0.02 0.02 0.02 0.02 0.02 0.02 0.03 0.03 0.04 0.05 0.04 0.05 0.05 0.05 0.05 0.04 0.04 0.04 0.04 0.05 0.05 0.03 0.03 0.03 0.04 0.04 0.03 0.02 0.03 0.03
0.02 0.01 0.01 0.02 0.02 0.02 0.02 0.02 0.01 0.02 0.02 0.02 0.01 0.02 0.02 0.02 0.02 0.03 0.03 0.03 0.04 0.02 0.02 0.03 0.03 0.03 0.03 0.03 0.03 0.03 0.03 0.04 0.05 0.04 0.04 0.03 0.03 0.03
0.02 0.01 0.01 0.02 0.01 0.01 0.01 0.01 0.01 0.02 0.01 0.01 0.01 0.01 0.01 0.02 0.02 0.02 0.02 0.03 0.03 0.02 0.02 0.02 0.02 0.02 0.02 0.02 0.02 0.02 0.02 0.03 0.05 0.04 0.04 0.02 0.02 0.02
0.02 0.02 0.01 0.01 0.01 0.00 0.00 0.00 0.01 0.01 0.02 0.02 0.02 0.01 0.01 0.02 0.02 0.02 0.02 0.02 0.03 0.03 0.03 0.02 0.01 0.02 0.02 0.01 0.01 0.01 0.01 0.02 0.04 0.03 0.04 0.02 0.01 0.01
0.02 0.01 0.01 0.01 0.01 0.01 0.01 0.00 0.01 0.00 0.01 0.02 0.02 0.01 0.01 0.02 0.02 0.02 0.03 0.03 0.03 0.02 0.02 0.02 0.02 0.01 0.01 0.01 0.00 0.00 0.01 0.02 0.03 0.03 0.04 0.03 0.01 0.01
0.02 0.01 0.01 0.01 0.01 0.01 0.01 0.01 0.01 0.01 0.01 0.01 0.01 0.01 0.01 0.02 0.02 0.02 0.02 0.02 0.03 0.03 0.03 0.03 0.01 0.01 0.01 0.02 0.01 0.01 0.01 0.02 0.03 0.03 0.04 0.04 0.02 0.02
0.01 0.01 0.01 0.01 0.01 0.01 0.01 0.01 0.02 0.02 0.01 0.01 0.00 0.01 0.01 0.01 0.01 0.01 0.02 0.02 0.03 0.03 0.04 0.03 0.02 0.02 0.02 0.02 0.02 0.01 0.01 0.01 0.02 0.02 0.03 0.04 0.03 0.03
0.01 0.01 0.00 0.00 0.01 0.01 0.01 0.02 0.02 0.02 0.02 0.01 0.01 0.01 0.01 0.01 0.00 0.01 0.01 0.03 0.03 0.03 0.04 0.04 0.03 0.03 0.03 0.03 0.03 0.03 0.03 0.03 0.02 0.02 0.04 0.04 0.03 0.03
0.01 0.00 0.00 0.00 0.01 0.01 0.01 0.01 0.02 0.02 0.02 0.02 0.02 0.02 0.01 0.01 0.01 0.02 0.02 0.03 0.03 0.04 0.04 0.05 0.05 0.04 0.05 0.04 0.04 0.04 0.04 0.04 0.03 0.03 0.05 0.05 0.05 0.05
0.01 0.01 0.00 0.00 0.01 0.01 0.01 0.01 0.02 0.02 0.02 0.03 0.03 0.03 0.03 0.02 0.02 0.02 0.03 0.03 0.03 0.04 0.05 0.05 0.07 0.06 0.05 0.05 0.04 0.04 0.04 0.05 0.05 0.05 0.06 0.08 0.07 0.06
0.01 0.01 0.01 0.01 0.01 0.01 0.02 0.02 0.01 0.02 0.02 0.03 0.03 0.03 0.03 0.03 0.03 0.03 0.03 0.03 0.03 0.03 0.04 0.05 0.06 0.07 0.06 0.06 0.05 0.04 0.04 0.04 0.06 0.06 0.07 0.09 0.07 0.06
0.01 0.01 0.01 0.00 0.00 0.01 0.01 0.01 0.01 0.01 0.01 0.02 0.03 0.04 0.03 0.03 0.03 0.03 0.03 0.03 0.03 0.03 0.05 0.05 0.06 0.06 0.06 0.06 0.05 0.04 0.05 0.05 0.05 0.07 0.08 0.08 0.08 0.07
0.01 0.01 0.01 0.01 0.01 0.01 0.01 0.01 0.01 0.01 0.01 0.02 0.03 0.04 0.03 0.02 0.02 0.03 0.03 0.03 0.03 0.03 0.05 0.06 0.06 0.05 0.05 0.05 0.05 0.05 0.05 0.05 0.06 0.07 0.09 0.09 0.09 0.09
0.00 0.01 0.01 0.01 0.01 0.00 0.01 0.01 0.01 0.01 0.01 0.02 0.02 0.03 0.03 0.03 0.03 0.03 0.05 0.04 0.04 0.05 0.07 0.07 0.06 0.04 0.03 0.03 0.04 0.04 0.05 0.06 0.06 0.07 0.09 0.11 0.11 0.10
0.00 0.00 0.01 0.00 0.00 0.00 0.01 0.02 0.02 0.01 0.01 0.02 0.02 0.03 0.03 0.03 0.04 0.04 0.05 0.06 0.06 0.06 0.06 0.05 0.05 0.04 0.03 0.03 0.05 0.04 0.04 0.05 0.06 0.06 0.07 0.08 0.10 0.10
0.00 0.00 0.00 0.00 0.00 0.00 0.00 0.02 0.02 0.01 0.01 0.01 0.02 0.03 0.04 0.03 0.03 0.04 0.04 0.05 0.07 0.06 0.05 0.04 0.04 0.03 0.03 0.03 0.05 0.05 0.04 0.05 0.05 0.05 0.05 0.06 0.07 0.08
0.00 0.00 0.00 0.00 0.00 0.00 0.00 0.01 0.02 0.01 0.01 0.01 0.01 0.02 0.03 0.03 0.04 0.04 0.05 0.05 0.05 0.05 0.05 0.04 0.04 0.03 0.03 0.03 0.03 0.04 0.05 0.05 0.05 0.04 0.04 0.04 0.05 0.06
0.00 0.00 0.00 0.00 0.00 0.00 0.01 0.01 0.01 0.01 0.01 0.01 0.01 0.02 0.02 0.03 0.03 0.04 0.04 0.05 0.04 0.03 0.03 0.02 0.03 0.02 0.02 0.02 0.03 0.04 0.04 0.04 0.03 0.03 0.03 0.03 0.04 0.04
0.01 0.01 0.01 0.00 0.00 0.01 0.01 0.01 0.01 0.01 0.02 0.02 0.02 0.02 0.02 0.02 0.03 0.03 0.04 0.04 0.03 0.03 0.02 0.02 0.02 0.02 0.02 0.02 0.03 0.03 0.03 0.03 0.02 0.02 0.02 0.02 0.02 0.02
MSLP
1019.75 1019.70 1019.58 1019.38 1019.10 1018.77 1018.40 1018.00 1017.62 1017.28 1016.98 1016.75 1016.58 1016.46 1016.38 1016.32 1016.26 1016.19 1016.09 1015.97 1015.82 1015.65 1015.45 1015.24 1015.02 1014.79 1014.56 1014.33 1014.11 1013.92 1013.75 1013.63 1013.56 1013.54 1013.58 1013.65 1013.74 1013.84
1020.29 1020.26 1020.16 1019.98 1019.71 1019.36 1018.96 1018.53 1018.09 1017.68 1017.30 1016.98 1016.72 1016.50 1016.32 1016.15 1015.99 1015.81 1015.63 1015.43 1015.22 1015.01 1014.80 1014.61 1014.42 1014.25 1014.09 1013.93 1013.78 1013.64 1013.52 1013.42 1013.34 1013.31 1013.31 1013.34 1013.40 1013.48
1020.62 1020.63 1020.56 1020.40 1020.15 1019.81 1019.40 1018.95 1018.49 1018.03 1017.60 1017.21 1016.86 1016.55 1016.26 1015.98 1015.70 1015.41 1015.11 1014.81 1014.52 1014.25 1014.01 1013.81 1013.65 1013.52 1013.42 1013.34 1013.27 1013.20 1013.13 1013.05 1012.99 1012.94 1012.91 1012.91 1012.93 1012.97
1020.80 1020.81 1020.76 1020.62 1020.39 1020.08 1019.69 1019.24 1018.77 1018.30 1017.83 1017.40 1016.99 1016.60 1016.22 1015.84 1015.45 1015.04 1014.63 1014.22 1013.83 1013.49 1013.19 1012.96 1012.80 1012.70 1012.64 1012.62 1012.61 1012.60 1012.58 1012.54 1012.49 1012.44 1012.39 1012.36 1012.35 1012.36
1020.87 1020.87 1020.82 1020.69 1020.48 1020.18 1019.81 1019.39 1018.93 1018.46 1017.99 1017.54 1017.10 1016.66 1016.22 1015.77 1015.29 1014.79 1014.28 1013.76 1013.28 1012.84 1012.47 1012.18 1011.99 1011.87 1011.83 1011.84 1011.87 1011.90 1011.92 1011.92 1011.89 1011.84 1011.78 1011.73 1011.69 1011.68
1020.92 1020.88 1020.80 1020.67 1020.46 1020.18 1019.83 1019.43 1018.99 1018.54 1018.09 1017.65 1017.20 1016.75 1016.28 1015.79 1015.25 1014.68 1014.09 1013.48 1012.90 1012.37 1011.92 1011.56 1011.30 1011.15 1011.08 1011.08 1011.13 1011.18 1011.22 1011.24 1011.23 1011.19 1011.13 1011.07 1011.02 1010.99
1021.00 1020.91 1020.79 1020.63 1020.42 1020.14 1019.80 1019.42 1019.01 1018.58 1018.15 1017.72 1017.29 1016.85 1016.38 1015.87 1015.31 1014.70 1014.05 1013.39 1012.73 1012.12 1011.58 1011.14 1010.81 1010.59 1010.47 1010.44 1010.46 1010.51 1010.55 1010.58 1010.57 1010.54 1010.49 1010.43 1010.38 1010.34
1021.12 1020.99 1020.83 1020.64 1020.41 1020.12 1019.79 1019.41 1019.01 1018.60 1018.19 1017.77 1017.36 1016.93 1016.47 1015.96 1015.40 1014.78 1014.11 1013.42 1012.72 1012.05 1011.44 1010.93 1010.53 1010.23 1010.05 1009.96 1009.94 1009.95 1009.97 1009.98 1009.98 1009.95 1009.90 1009.84 1009.79 1009.76
1021.29 1021.12 1020.94 1020.72 1020.47 1020.17 1019.82 1019.44 1019.03 1018.61 1018.20 1017.79 1017.37 1016.95 1016.50 1016.00 1015.46 1014.85 1014.19 1013.49 1012.78 1012.09 1011.45 1010.89 1010.43 1010.08 1009.83 1009.68 1009.59 1009.55 1009.52 1009.50 1009.46 1009.41 1009.35 1009.29 1009.24 1009.21
1021.46 1021.28 1021.09 1020.86 1020.58 1020.26 1019.89 1019.49 1019.06 1018.62 1018.18 1017.74 1017.31 1016.88 1016.42 1015.94 1015.40 1014.82 1014.19 1013.52 1012.84 1012.17 1011.53 1010.97 1010.49 1010.10 1009.80 1009.58 1009.42 1009.31 1009.21 1009.12 1009.03 1008.92 1008.82 1008.73 1008.67 1008.64
1021.61 1021.43 1021.24 1021.00 1020.71 1020.37 1019.98 1019.54 1019.07 1018.59 1018.10 1017.63 1017.16 1016.69 1016.22 1015.73 1015.21 1014.65 1014.06 1013.45 1012.82 1012.20 1011.62 1011.09 1010.62 1010.23 1009.90 1009.63 1009.41 1009.21 1009.02 1008.84 1008.65 1008.45 1008.28 1008.13 1008.02 1007.98
1021.68 1021.53 1021.34 1021.10 1020.81 1020.45 1020.03 1019.56 1019.05 1018.51 1017.98 1017.44 1016.92 1016.40 1015.90 1015.39 1014.88 1014.35 1013.81 1013.26 1012.71 1012.17 1011.67 1011.20 1010.79 1010.42 1010.09 1009.79 1009.51 1009.22 1008.93 1008.62 1008.30 1007.99 1007.69 1007.45 1007.27 1007.18
1021.69 1021.55 1021.36 1021.12 1020.82 1020.45 1020.01 1019.51 1018.96 1018.39 1017.80 1017.21 1016.63 1016.07 1015.52 1014.99 1014.48 1013.97 1013.47 1012.98 1012.52 1012.08 1011.67 1011.29 1010.95 1010.63 1010.32 1010.00 1009.67 1009.30 1008.89 1008.45 1007.99 1007.52 1007.09 1006.72 1006.45 1006.29
1021.63 1021.49 1021.30 1021.05 1020.74 1020.35 1019.90 1019.39 1018.82 1018.22 1017.60 1016.97 1016.35 1015.75 1015.17 1014.61 1014.09 1013.59 1013.13 1012.70 1012.30 1011.95 1011.64 1011.35 1011.09 1010.83 1010.55 1010.24 1009.86 1009.42 1008.91 1008.34 1007.73 1007.11 1006.53 1006.03 1005.64 1005.40
1021.52 1021.35 1021.14 1020.88 1020.55 1020.16 1019.71 1019.20 1018.64 1018.04 1017.41 1016.78 1016.14 1015.52 1014.91 1014.34 1013.81 1013.31 1012.86 1012.47 1012.13 1011.85 1011.61 1011.41 1011.22 1011.01 1010.77 1010.47 1010.07 1009.58 1008.99 1008.31 1007.57 1006.83 1006.11 1005.48 1004.98 1004.66
1021.37 1021.17 1020.92 1020.63 1020.29 1019.90 1019.46 1018.98 1018.45 1017.88 1017.29 1016.67 1016.05 1015.43 1014.83 1014.24 1013.69 1013.19 1012.75 1012.36 1012.05 1011.81 1011.62 1011.47 1011.33 1011.17 1010.97 1010.68 1010.29 1009.77 1009.14 1008.39 1007.58 1006.74 1005.93 1005.21 1004.63 1004.23
1021.20 1020.95 1020.66 1020.34 1019.99 1019.61 1019.20 1018.76 1018.28 1017.78 1017.24 1016.69 1016.11 1015.52 1014.92 1014.34 1013.78 1013.27 1012.81 1012.41 1012.10 1011.86 1011.68 1011.55 1011.44 1011.32 1011.14 1010.88 1010.51 1010.01 1009.37 1008.62 1007.79 1006.93 1006.08 1005.32 1004.70 1004.26
1021.01 1020.71 1020.38 1020.04 1019.69 1019.33 1018.96 1018.57 1018.17 1017.75 1017.29 1016.81 1016.29 1015.75 1015.19 1014.61 1014.05 1013.52 1013.03 1012.61 1012.26 1011.99 1011.80 1011.66 1011.55 1011.44 1011.29 1011.07 1010.73 1010.28 1009.70 1009.00 1008.22 1007.40 1006.59 1005.85 1005.24 1004.80
1020.79 1020.46 1020.12 1019.77 1019.43 1019.10 1018.78 1018.46 1018.13 1017.79 1017.43 1017.02 1016.58 1016.09 1015.56 1015.01 1014.44 1013.89 1013.37 1012.91 1012.51 1012.20 1011.97 1011.80 1011.67 1011.56 1011.43 1011.24 1010.96 1010.58 1010.08 1009.48 1008.81 1008.09 1007.38 1006.72 1006.18 1005.78
1020.55 1020.23 1019.89 1019.56 1019.25 1018.95 1018.68 1018.43 1018.18 1017.92 1017.63 1017.29 1016.91 1016.47 1015.98 1015.44 1014.88 1014.31 1013.77 1013.26 1012.82 1012.46 1012.18 1011.97 1011.81 1011.68 1011.56 1011.40 1011.18 1010.88 1010.49 1010.01 1009.47 1008.90 1008.33 1007.80 1007.36 1007.03
1020.30 1020.01 1019.72 1019.43 1019.15 1018.91 1018.70 1018.50 1018.31 1018.10 1017.87 1017.59 1017.26 1016.86 1016.39 1015.87 1015.32 1014.74 1014.18 1013.64 1013.17 1012.76 1012.43 1012.17 1011.98 1011.83 1011.70 1011.56 1011.39 1011.16 1010.87 1010.53 1010.13 1009.71 1009.29 1008.91 1008.59 1008.36
1020.05 1019.84 1019.60 1019.38 1019.16 1018.98 1018.81 1018.66 1018.51 1018.34 1018.14 1017.90 1017.59 1017.21 1016.76 1016.26 1015.72 1015.15 1014.58 1014.03 1013.53 1013.10 1012.73 1012.44 1012.21 1012.03 1011.89 1011.75 1011.60 1011.42 1011.21 1010.97 1010.69 1010.41 1010.13 1009.88 1009.68 1009.55
1019.82 1019.69 1019.55 1019.40 1019.27 1019.14 1019.02 1018.91 1018.78 1018.63 1018.44 1018.20 1017.90 1017.53 1017.09 1016.60 1016.07 1015.52 1014.96 1014.43 1013.93 1013.49 1013.10 1012.78 1012.53 1012.31 1012.14 1011.98 1011.83 1011.67 1011.50 1011.31 1011.12 1010.93 1010.76 1010.61 1010.51 1010.45
Thickness
5663 5661 5661 5661 5660 5659 5658 5656 5652 5652 5653 5653 5651 5650 5647 5645 5642 5640 5638 5635 5632 5629 5628 5626 5625 5624 5623 5622 5621 5621 5620 5620 5619 5619 5620 5621 5622 5624
5658 5656 5655 5656 5654 5654 5653 5652 5650 5647 5647 5649 5646 5645 5641 5640 5637 5635 5633 5630 5628 5625 5623 5621 5620 5618 5617 5616 5615 5614 5614 5613 5612 5612 5613 5614 5616 5618
5654 5653 5651 5650 5649 5649 5649 5648 5645 5643 5641 5643 5642 5639 5635 5633 5632 5630 5629 5628 5627 5622 5619 5617 5614 5613 5611 5610 5609 5608 5607 5607 5606 5606 5606 5608 5609 5611
5651 5649 5647 5646 5644 5644 5643 5642 5641 5638 5637 5634 5634 5633 5630 5628 5627 5625 5625 5625 5623 5619 5616 5613 5610 5608 5607 5605 5604 5603 5602 5601 5601 5600 5601 5602 5604 5605
5647 5645 5643 5641 5640 5640 5638 5638 5637 5636 5632 5630 5630 5628 5627 5625 5623 5622 5621 5618 5618 5616 5612 5609 5606 5604 5603 5601 5599 5597 5596 5595 5595 5595 5595 5596 5597 5598
5644 5642 5640 5638 5636 5635 5634 5632 5632 5630 5629 5628 5627 5625 5623 5621 5618 5617 5616 5615 5613 5612 5609 5606 5603 5601 5599 5597 5595 5592 5591 5589 5589 5589 5589 5589 5590 5591
5639 5638 5637 5634 5631 5629 5630 5628 5627 5626 5626 5625 5624 5623 5620 5615 5613 5613 5611 5609 5609 5607 5605 5604 5602 5601 5598 5594 5590 5588 5585 5584 5583 5583 5582 5583 5584 5585
5634 5633 5632 5629 5627 5623 5621 5620 5619 5619 5620 5619 5620 5617 5612 5610 5608 5606 5605 5604 5603 5603 5600 5600 5600 5598 5596 5593 5589 5584 5581 5579 5578 5577 5577 5578 5578 5579
5629 5628 5629 5628 5624 5622 5619 5615 5614 5612 5611 5611 5612 5610 5607 5605 5601 5600 5599 5597 5597 5597 5595 5595 5595 5593 5592 5590 5584 5579 5576 5574 5573 5573 5572 5573 5573 5573
5625 5624 5622 5621 5620 5617 5617 5616 5614 5612 5609 5607 5605 5604 5602 5599 5596 5594 5593 5593 5593 5594 5591 5589 5590 5588 5587 5584 5579 5575 5572 5570 5569 5569 5569 5569 5568 5568
5622 5621 5619 5617 5613 5610 5611 5612 5611 5610 5606 5602 5599 5597 5594 5592 5590 5590 5591 5591 5591 5591 5588 5584 5584 5582 5581 5579 5575 5571 5568 5567 5566 5566 5565 5565 5564 5563
5620 5618 5614 5611 5607 5605 5607 5607 5606 5606 5604 5602 5597 5595 5593 5591 5587 5585 5587 5587 5587 5586 5584 5579 5577 5574 5573 5574 5571 5568 5565 5563 5562 5562 5562 5561 5560 5559
5619 5618 5615 5607 5603 5601 5600 5602 5601 5599 5600 5599 5598 5596 5594 5591 5588 5585 5583 5582 5582 5581 5579 5573 5571 5568 5565 5566 5566 5565 5563 5562 5561 5560 5559 5558 5556 5555
5615 5615 5612 5604 5600 5598 5597 5597 5594 5591 5596 5596 5595 5593 5592 5590 5588 5585 5582 5579 5576 5574 5571 5567 5564 5562 5560 5560 5561 5561 5559 5558 5558 5557 5557 5554 5551 5550
5611 5608 5604 5600 5598 5597 5594 5592 5590 5592 5593 5593 5592 5591 5590 5588 5586 5583 5580 5576 5573 5572 5569 5564 5561 5559 5556 5555 5555 5555 5553 5553 5552 5552 5551 5550 5548 5547
5606 5604 5600 5598 5596 5595 5595 5594 5593 5592 5591 5590 5590 5589 5587 5585 5583 5581 5578 5575 5573 5571 5567 5562 5558 5555 5554 5552 5551 5550 5548 5547 5547 5546 5545 5544 5544 5543
5603 5604 5604 5603 5602 5601 5600 5598 5595 5592 5589 5587 5586 5586 5584 5582 5581 5578 5574 5572 5570 5568 5565 5561 5557 5553 5550 5548 5547 5546 5544 5543 5542 5541 5539 5540 5540 5540
5597 5602 5603 5602 5601 5600 5599 5597 5595 5592 5589 5586 5584 5583 5581 5579 5578 5576 5572 5569 5566 5564 5561 5558 5555 5551 5548 5546 5541 5541 5541 5540 5538 5536 5535 5536 5536 5536
5596 5600 5600 5600 5599 5598 5597 5595 5592 5590 5586 5584 5582 5580 5578 5576 5574 5572 5569 5565 5563 5560 5558 5554 5550 5548 5545 5543 5542 5535 5535 5535 5534 5533 5532 5531 5532 5532
5598 5599 5598 5598 5597 5595 5594 5592 5590 5587 5584 5581 5579 5576 5574 5572 5570 5568 5565 5561 5558 5556 5553 5551 5547 5544 5540 5538 5537 5535 5530 5531 5530 5529 5529 5528 5527 5525
5598 5598 5597 5596 5595 5593 5590 5588 5586 5583 5580 5578 5576 5572 5571 5568 5566 5564 5561 5556 5553 5552 5550 5547 5544 5538 5537 5535 5533 5532 5530 5525 5524 5523 5524 5525 5525 5525
5596 5595 5595 5593 5591 5589 5587 5585 5583 5580 5577 5575 5573 5570 5567 5564 5562 5559 5558 5555 5553 5550 5548 5546 5542 5538 5535 5533 5532 5530 5528 5526 5521 5519 5517 5518 5519 5521
5593 5592 5591 5590 5588 5586 5584 5582 5579 5577 5575 5573 5570 5567 5565 5561 5558 5556 5555 5553 5551 5548 5546 5544 5541 5538 5534 5532 5530 5528 5527 5525 5524 5521 5519 5515 5514 5513